KA2K Weather Reports


time (UTC)temp
C
wind
direction
speed
KPH
gust
KPH
rain 1hr
cm
rain 24hr
cm
rain mn
cm
humidity
%
barometer
mb
20260905123508 21 303 0.0 0.0 0.00 0.00 0.00 82 1011.2
20260905123026 21 303 0.0 0.0 0.00 0.00 0.00 81 1011.2
20260905122514 21 303 0.0 0.0 0.00 0.00 0.00 81 1011.2
20260905122012 21 303 0.0 0.0 0.00 0.00 0.00 80 1011.2
20260905121529 21 303 0.0 0.0 0.00 0.00 0.00 80 1011.2
20260905121017 21 303 0.0 0.0 0.00 0.00 0.00 79 1011.3
20260905120516 21 303 0.0 0.0 0.00 0.00 0.00 79 1011.2
20260905120031 21 303 0.0 0.0 0.00 0.00 0.00 80 1011.2
20260905115518 21 303 0.0 0.0 0.00 0.00 0.00 81 1011.0
20260905115017 21 303 0.0 0.0 0.00 0.00 0.00 81 1011.0
20260905114515 21 303 0.0 0.0 0.00 0.00 0.00 81 1011.0
20260905114009 21 303 0.0 0.0 0.00 0.00 0.00 80 1011.0
20260905113509 21 303 0.0 0.0 0.00 0.00 0.00 80 1010.9
20260905113023 21 303 0.0 0.0 0.00 0.00 0.00 81 1010.9
20260905112513 21 303 0.0 0.0 0.00 0.00 0.00 81 1011.0
20260905112013 21 303 0.0 0.0 0.00 0.00 0.00 81 1010.9
20260905111533 21 303 0.0 0.0 0.00 0.00 0.00 80 1010.8
20260905111016 21 303 0.0 0.0 0.00 0.00 0.00 81 1010.7
20260905110514 21 303 0.0 0.0 0.00 0.00 0.00 82 1010.6
20260905110030 21 303 0.0 0.0 0.00 0.00 0.00 83 1010.7
20260905105519 21 303 0.0 0.0 0.00 0.00 0.00 83 1010.7
20260905105016 21 303 0.0 0.0 0.00 0.00 0.00 82 1010.5
20260905104533 21 303 0.0 0.0 0.00 0.00 0.00 85 1010.2
20260905104019 21 303 0.0 0.0 0.00 0.00 0.00 85 1010.2
20260905103508 21 303 0.0 0.0 0.00 0.00 0.00 85 1010.2
20260905103019 21 303 0.0 0.0 0.00 0.00 0.00 84 1010.2
20260905102511 21 303 0.0 0.0 0.00 0.00 0.00 86 1010.1
20260905102011 21 303 0.0 0.0 0.00 0.00 0.00 86 1010.0
20260905101527 21 303 0.0 0.0 0.00 0.00 0.00 86 1010.0
20260905101012 21 303 0.0 0.0 0.00 0.00 0.00 86 1010.1
20260905100512 21 303 0.0 0.0 0.00 0.00 0.00 86 1010.0
20260905100034 21 303 0.0 0.0 0.00 0.00 0.00 85 1009.9
20260905095516 21 303 0.0 0.0 0.00 0.00 0.00 84 1010.0
20260905095019 21 303 0.0 0.0 0.00 0.00 0.00 84 1009.9
20260905094533 21 303 0.0 0.0 0.00 0.00 0.00 84 1009.8
20260905094015 21 303 0.0 0.0 0.00 0.00 0.00 84 1009.9
20260905093515 21 303 0.0 0.0 0.00 0.00 0.00 84 1009.9
20260905093034 21 303 0.0 0.0 0.00 0.00 0.00 84 1009.9
20260905092509 21 303 0.0 0.0 0.00 0.00 0.00 85 1009.9
20260905092014 21 303 0.0 0.0 0.00 0.00 0.00 85 1009.8
20260905091531 21 303 0.0 0.0 0.00 0.00 0.00 84 1009.9
20260905091013 21 303 0.0 0.0 0.00 0.00 0.00 85 1009.9
20260905090514 21 303 0.0 0.0 0.00 0.00 0.00 85 1009.9
20260905090028 21 303 0.0 0.0 0.00 0.00 0.00 87 1009.9
20260905085516 21 303 0.0 0.0 0.00 0.00 0.00 87 1009.9
20260905085015 21 303 0.0 0.0 0.00 0.00 0.00 87 1009.9
20260905084534 21 303 0.0 0.0 0.00 0.00 0.00 85 1009.9
20260905084016 21 303 0.0 0.0 0.00 0.00 0.00 85 1009.9
20260905083516 21 303 0.0 0.0 0.00 0.00 0.00 84 1009.8
20260905083035 21 303 0.0 0.0 0.00 0.00 0.00 84 1009.8
20260905082515 21 303 0.0 0.0 0.00 0.00 0.00 84 1009.8
20260905082018 21 303 0.0 0.0 0.00 0.00 0.00 84 1009.8
20260905081522 21 303 0.0 0.0 0.00 0.00 0.00 85 1009.8
20260905081011 21 303 0.0 0.0 0.00 0.00 0.00 84 1009.8
20260905080510 21 303 0.0 0.0 0.00 0.00 0.00 84 1009.8
20260905080026 21 303 0.0 0.0 0.00 0.00 0.00 86 1009.9
20260905075512 21 303 0.0 0.0 0.00 0.00 0.00 86 1009.9
20260905075015 21 303 0.0 0.0 0.00 0.00 0.00 87 1010.0
20260905074532 21 303 0.0 0.0 0.00 0.00 0.00 86 1010.0
20260905074018 21 303 0.0 0.0 0.00 0.00 0.00 87 1010.0
20260905073517 21 303 0.0 0.0 0.00 0.00 0.00 87 1010.1
20260905073039 21 303 0.0 0.0 0.00 0.00 0.00 87 1010.1
20260905072516 21 303 0.0 0.0 0.00 0.00 0.00 87 1010.1
20260905072018 21 303 0.0 0.0 0.00 0.00 0.00 87 1010.0
20260905071532 21 303 0.0 0.0 0.00 0.00 0.00 87 1010.0
20260905071020 21 303 0.0 0.0 0.00 0.00 0.00 87 1010.0
20260905070512 21 303 0.0 0.0 0.00 0.00 0.00 87 1010.2
20260905070026 21 303 0.0 0.0 0.00 0.00 0.00 86 1010.1
20260905065515 21 303 0.0 0.0 0.00 0.00 0.00 86 1010.1
20260905065014 21 303 0.0 0.0 0.00 0.00 0.00 87 1010.1
20260905064532 21 303 0.0 0.0 0.00 0.00 0.00 87 1010.1
20260905064015 21 303 0.0 0.0 0.00 0.00 0.00 86 1010.2
20260905063515 21 303 0.0 0.0 0.00 0.00 0.00 86 1010.3
20260905063032 21 303 0.0 0.0 0.00 0.00 0.00 85 1010.3
20260905062518 22 303 0.0 0.0 0.00 0.00 0.00 85 1010.4
20260905062015 22 303 0.0 0.0 0.00 0.00 0.00 85 1010.4
20260905061540 22 303 0.0 0.0 0.00 0.00 0.00 83 1010.4
20260905061020 22 303 0.0 0.0 0.00 0.00 0.00 83 1010.4
20260905060520 22 303 0.0 0.0 0.00 0.00 0.00 84 1010.4
20260905060033 22 303 0.0 0.0 0.00 0.00 0.00 84 1010.5
20260905055513 22 303 0.0 0.0 0.00 0.00 0.00 85 1010.6
20260905055014 22 303 0.0 0.0 0.00 0.00 0.00 85 1010.6
20260905054533 22 303 0.0 0.0 0.00 0.23 0.00 85 1010.7
20260905054015 22 303 0.0 0.0 0.00 0.53 0.00 86 1010.7
20260905053518 22 303 0.0 0.0 0.00 0.53 0.00 86 1010.6
20260905053034 22 303 0.0 0.0 0.00 0.53 0.00 82 1010.5
20260905052516 22 303 0.0 0.0 0.00 0.53 0.00 83 1010.5
20260905052018 22 303 0.0 0.0 0.00 0.53 0.00 85 1010.5
20260905051535 22 303 0.0 0.0 0.00 0.56 0.00 85 1010.6
20260905051015 22 303 0.0 0.0 0.00 0.56 0.00 84 1010.6
20260905050517 22 303 0.0 0.0 0.00 0.56 0.00 87 1010.6
20260905050020 22 303 0.0 0.0 0.00 0.61 0.00 90 1010.8
20260905045510 22 303 0.0 0.0 0.00 0.71 0.00 89 1010.7
20260905045014 23 303 0.0 0.0 0.00 0.71 0.00 91 1010.8
20260905044531 23 303 0.0 0.0 0.00 0.71 0.00 91 1010.9
20260905044011 23 303 0.0 0.0 0.00 0.71 0.00 91 1010.8
20260905043515 23 303 0.0 0.0 0.00 0.71 0.00 91 1010.7
20260905043031 23 303 0.0 0.0 0.00 0.71 0.00 91 1010.8
20260905042502 23 303 0.0 0.0 0.00 0.71 0.00 91 1010.8
20260905042006 23 303 0.0 0.0 0.00 0.71 0.00 91 1010.7
20260905041512 22 303 0.0 0.0 0.00 0.71 0.00 91 1010.8
20260905041007 23 303 0.0 0.0 0.00 0.71 0.00 91 1010.8
20260905040507 23 303 0.0 0.0 0.00 0.71 0.00 91 1010.9
20260905040019 23 303 0.0 0.0 0.00 0.71 0.00 91 1010.9
20260905035512 23 303 0.0 0.0 0.00 0.71 0.71 90 1010.9
20260905035010 23 303 0.0 0.0 0.00 0.71 0.71 91 1010.8
20260905034524 23 303 0.0 0.0 0.00 0.71 0.71 91 1010.9
20260905034013 23 303 0.0 0.0 0.00 0.71 0.71 91 1011.0
20260905033512 23 303 0.0 0.0 0.00 0.71 0.71 91 1011.0
20260905033029 23 303 0.0 0.0 0.00 0.71 0.71 91 1011.0
20260905032516 23 303 0.0 0.0 0.00 0.71 0.71 91 1010.9
20260905032017 23 303 0.0 0.0 0.00 0.71 0.71 91 1010.8
20260905031509 23 303 0.0 0.0 0.00 0.71 0.71 91 1010.8
20260905031003 23 303 0.0 0.0 0.00 0.71 0.71 91 1010.9
20260905030503 23 303 0.0 0.0 0.00 0.71 0.71 91 1010.8
20260905030014 23 303 0.0 0.0 0.00 0.71 0.71 91 1010.8
20260905025508 23 303 0.0 0.0 0.00 0.71 0.71 90 1010.8
20260905025011 23 303 0.0 0.0 0.00 0.71 0.71 90 1010.8
20260905024529 23 303 0.0 0.0 0.00 0.71 0.71 90 1010.8
20260905024010 23 303 0.0 0.0 0.00 0.71 0.71 90 1010.8
20260905023513 23 303 0.0 0.0 0.00 0.71 0.71 90 1010.8
20260905023027 23 303 0.0 0.0 0.00 0.71 0.71 90 1010.8
20260905022515 23 303 0.0 0.0 0.00 0.71 0.71 90 1010.9
20260905022014 23 303 0.0 0.0 0.00 0.71 0.71 90 1010.8
20260905021535 23 303 0.0 0.0 0.00 0.71 0.71 89 1010.9
20260905021017 23 303 0.0 0.0 0.00 0.71 0.71 89 1010.9
20260905020505 23 303 0.0 0.0 0.00 0.71 0.71 89 1010.8
20260905020014 23 303 0.0 0.0 0.00 0.71 0.71 90 1010.8
20260905015507 23 303 0.0 0.0 0.00 0.71 0.71 90 1010.7
20260905015011 23 303 0.0 0.0 0.00 0.71 0.71 91 1010.8
20260905014519 23 303 0.0 0.0 0.00 0.71 0.71 91 1010.9
20260905014007 23 303 0.0 0.0 0.00 0.71 0.71 91 1010.9
20260905013510 23 303 0.0 0.0 0.00 0.71 0.71 91 1010.9
20260905013026 23 303 0.0 0.0 0.00 0.71 0.71 91 1010.9
20260905012514 23 303 0.0 0.0 0.00 0.71 0.71 91 1010.9
20260905012014 23 303 0.0 0.0 0.00 0.71 0.71 91 1010.9
20260905011533 23 303 0.0 0.0 0.00 0.71 0.71 91 1011.0
20260905011015 23 303 0.0 0.0 0.00 0.71 0.71 91 1011.0
20260905010518 23 303 0.0 0.0 0.00 0.71 0.71 91 1011.0
20260905010037 23 303 0.0 0.0 0.00 0.71 0.71 91 1010.9
20260905005507 23 303 0.0 0.0 0.00 0.71 0.71 91 1010.9
20260905005008 23 303 0.0 0.0 0.00 0.71 0.71 91 1010.8
20260905004520 23 303 0.0 0.0 0.00 0.71 0.71 91 1010.7
20260905004008 24 303 0.0 0.0 0.00 0.71 0.71 90 1010.7
20260905003511 24 303 0.0 0.0 0.00 0.71 0.71 90 1010.8
20260905003026 24 303 0.0 0.0 0.00 0.71 0.71 90 1010.6
20260905002514 24 303 0.0 0.0 0.00 0.71 0.71 90 1010.6
20260905002015 24 303 0.0 0.0 0.00 0.71 0.71 90 1010.4
20260905001530 24 303 0.0 0.0 0.00 0.71 0.71 89 1010.4
20260905001015 24 303 0.0 0.0 0.00 0.71 0.71 89 1010.4
20260905000515 24 303 0.0 0.0 0.00 0.71 0.71 89 1010.4
20260905000035 24 303 0.0 0.0 0.00 0.71 0.71 89 1010.4
20260904235516 24 303 0.0 0.0 0.00 0.71 0.71 89 1010.4
20260904235018 24 303 0.0 0.0 0.00 0.71 0.71 89 1010.4
20260904234517 25 303 0.0 0.0 0.00 0.71 0.71 88 1010.5
20260904234011 25 303 0.0 0.0 0.00 0.71 0.71 87 1010.4
20260904233510 25 303 0.0 0.0 0.00 0.71 0.71 87 1010.6
20260904233025 25 303 0.0 0.0 0.00 0.71 0.71 86 1010.5
20260904232510 25 303 0.0 0.0 0.00 0.71 0.71 87 1010.5
20260904232013 25 303 0.0 0.0 0.00 0.71 0.71 87 1010.6
20260904231528 25 303 0.0 0.0 0.00 0.71 0.71 86 1010.6
20260904231019 25 303 0.0 0.0 0.00 0.71 0.71 85 1010.6
20260904230515 25 303 0.0 0.0 0.00 0.71 0.71 84 1010.5
20260904230008 25 303 0.0 0.0 0.00 0.71 0.71 83 1010.6
20260904225503 26 303 0.0 0.0 0.00 0.71 0.71 82 1010.6
20260904225002 26 303 0.0 0.0 0.00 0.71 0.71 82 1010.6
20260904224515 26 303 0.0 0.0 0.00 0.71 0.71 81 1010.5
20260904224007 26 303 0.0 0.0 0.00 0.71 0.71 80 1010.5
20260904223509 26 303 0.0 0.0 0.00 0.71 0.71 80 1010.5
20260904223021 26 303 0.0 0.0 0.00 0.71 0.71 81 1010.6
20260904222510 26 303 0.0 0.0 0.00 0.71 0.71 82 1010.6
20260904222017 26 303 0.0 0.0 0.00 0.71 0.71 82 1010.5
20260904221527 26 303 0.0 0.0 0.00 0.71 0.71 81 1010.5
20260904221014 26 303 0.0 0.0 0.00 0.71 0.71 80 1010.5
20260904220516 26 303 0.0 0.0 0.00 0.71 0.71 80 1010.4
20260904220032 26 303 0.0 0.0 0.00 0.71 0.71 79 1010.6
20260904215503 26 303 0.0 0.0 0.00 0.71 0.71 78 1010.5
20260904215006 26 303 0.0 0.0 0.00 0.71 0.71 78 1010.6
20260904214511 27 303 0.0 0.0 0.00 0.71 0.71 78 1010.6
20260904214008 27 303 0.0 0.0 0.00 0.71 0.71 76 1010.7
20260904213506 27 303 0.0 0.0 0.00 0.71 0.71 74 1010.7
20260904213016 27 303 0.0 0.0 0.00 0.71 0.71 72 1010.7
20260904212510 27 303 0.0 0.0 0.00 0.71 0.71 72 1010.5
20260904212011 28 303 0.0 3.2 0.00 0.71 0.71 67 1010.4
20260904211526 28 303 0.0 3.2 0.00 0.71 0.71 66 1010.4
20260904211014 28 351 0.0 0.0 0.00 0.71 0.71 67 1010.3
20260904210514 28 351 0.0 0.0 0.00 0.71 0.71 71 1010.2
20260904210030 28 351 0.0 0.0 0.00 0.71 0.71 67 1010.2
20260904205514 28 351 0.0 0.0 0.00 0.71 0.71 69 1010.3
20260904205015 28 351 0.0 3.2 0.00 0.71 0.71 69 1010.4
20260904204512 29 331 0.0 3.2 0.00 0.71 0.71 67 1010.4
20260904204003 28 330 0.0 3.2 0.00 0.71 0.71 66 1010.6
20260904203507 28 304 0.0 0.0 0.00 0.71 0.71 71 1010.6
20260904203027 28 71 0.0 0.0 0.00 0.71 0.71 68 1010.6
20260904202510 29 71 0.0 0.0 0.00 0.71 0.71 67 1010.7
20260904202009 29 71 0.0 0.0 0.00 0.71 0.71 68 1010.7
20260904201521 29 325 0.0 0.0 0.00 0.71 0.71 69 1010.7
20260904201012 29 325 0.0 0.0 0.00 0.71 0.71 65 1010.8
20260904200512 29 325 0.0 0.0 0.00 0.71 0.71 71 1010.9
20260904200030 29 215 0.0 0.0 0.00 0.71 0.71 68 1010.9
20260904195521 28 303 0.0 3.2 0.00 0.71 0.71 68 1010.8
20260904195015 28 296 0.0 3.2 0.00 0.71 0.71 66 1010.8
20260904194533 29 296 0.0 3.2 0.00 0.71 0.71 65 1010.9
20260904194015 30 74 1.6 3.2 0.00 0.71 0.71 66 1010.9
20260904193504 30 316 0.0 3.2 0.00 0.71 0.71 67 1011.2
20260904193012 29 316 0.0 3.2 0.00 0.71 0.71 64 1011.3
20260904192507 29 344 0.0 3.2 0.00 0.71 0.71 67 1011.3
20260904192012 28 263 0.0 3.2 0.00 0.71 0.71 70 1011.4
20260904191518 28 307 0.0 3.2 0.00 0.71 0.71 71 1011.6
20260904191010 28 307 0.0 3.2 0.00 0.71 0.71 69 1011.7
20260904190512 28 307 0.0 3.2 0.00 0.71 0.71 66 1011.7
20260904190028 29 344 0.0 3.2 0.00 0.71 0.71 64 1011.7
20260904185514 29 313 1.6 3.2 0.00 0.71 0.71 64 1011.8
20260904185017 30 293 0.0 8.0 0.00 0.71 0.71 65 1011.7
20260904184530 30 314 1.6 8.0 0.00 0.71 0.71 63 1011.7
20260904184016 30 360 1.6 8.0 0.00 0.71 0.71 62 1011.7
20260904183517 30 22 1.6 8.0 0.00 0.71 0.71 65 1011.7
20260904183033 30 333 0.0 4.8 0.00 0.71 0.71 64 1011.9
20260904182507 30 309 1.6 4.8 0.00 0.71 0.71 62 1011.9
20260904182011 30 91 1.6 4.8 0.00 0.71 0.71 63 1011.7
20260904181522 30 340 1.6 4.8 0.00 0.71 0.71 64 1011.7
20260904181012 30 296 1.6 4.8 0.00 0.71 0.71 61 1011.8
20260904180511 30 311 0.0 4.8 0.00 0.71 0.71 65 1011.8
20260904180040 30 311 1.6 4.8 0.00 0.71 0.71 66 1011.7
20260904175512 30 307 1.6 3.2 0.00 0.71 0.71 62 1011.8
20260904175014 30 58 0.0 4.8 0.00 0.71 0.71 66 1011.8
20260904174536 30 321 1.6 4.8 0.00 0.71 0.71 66 1011.8
20260904174018 30 324 1.6 4.8 0.00 0.71 0.71 65 1011.8
20260904173515 30 274 1.6 6.4 0.00 0.71 0.71 66 1011.7
20260904173038 30 305 0.0 6.4 0.00 0.71 0.71 64 1011.7
20260904172516 30 288 0.0 3.2 0.00 0.71 0.71 67 1011.8
20260904172018 30 360 1.6 4.8 0.00 0.71 0.71 68 1011.9
20260904171529 29 300 1.6 4.8 0.00 0.71 0.71 65 1011.9
20260904171003 29 360 1.6 4.8 0.00 0.71 0.71 67 1012.0
20260904170509 29 246 3.2 4.8 0.00 0.71 0.71 65 1012.0
20260904170020 30 169 1.6 3.2 0.00 0.71 0.71 65 1012.0
20260904165510 29 327 1.6 3.2 0.00 0.71 0.71 66 1011.9
20260904165012 29 288 1.6 3.2 0.00 0.71 0.71 67 1012.0
20260904164527 28 325 1.6 3.2 0.00 0.71 0.71 67 1011.9
20260904164014 29 196 0.0 3.2 0.00 0.71 0.71 65 1011.9
20260904163515 29 285 0.0 4.8 0.00 0.71 0.71 68 1011.9
20260904163030 28 284 1.6 4.8 0.00 0.71 0.71 67 1011.9
20260904162517 28 12 0.0 3.2 0.00 0.71 0.71 69 1011.9
20260904162015 29 184 1.6 6.4 0.00 0.71 0.71 72 1012.0
20260904161533 29 169 1.6 6.4 0.00 0.71 0.71 70 1012.0
20260904161017 28 43 1.6 4.8 0.00 0.71 0.71 70 1012.0
20260904160506 28 72 0.0 4.8 0.00 0.71 0.71 71 1012.0
20260904160018 28 64 1.6 3.2 0.00 0.71 0.71 73 1012.0
20260904155512 28 76 1.6 3.2 0.00 0.71 0.71 71 1012.0
20260904155014 28 49 1.6 4.8 0.00 0.71 0.71 72 1012.0
20260904154537 28 30 1.6 4.8 0.00 0.71 0.71 71 1012.1
20260904154017 28 76 1.6 4.8 0.00 0.71 0.71 69 1012.1
20260904153517 28 360 1.6 6.4 0.00 0.71 0.71 71 1012.1
20260904153035 28 360 1.6 6.4 0.00 0.71 0.71 73 1012.1
20260904152515 28 277 1.6 6.4 0.00 0.71 0.71 73 1012.1
20260904152015 28 323 1.6 6.4 0.00 0.71 0.71 73 1012.1
20260904151535 28 329 1.6 6.4 0.00 0.71 0.71 71 1012.1
20260904151015 28 9 1.6 6.4 0.00 0.71 0.71 71 1012.1
20260904150515 28 95 1.6 4.8 0.00 0.71 0.71 72 1012.0
20260904150031 28 180 1.6 4.8 0.00 0.71 0.71 74 1012.1
20260904145507 28 23 0.0 4.8 0.00 0.71 0.71 74 1012.0
20260904145013 28 204 1.6 4.8 0.00 0.71 0.71 73 1012.2
20260904144522 28 327 0.0 3.2 0.00 0.71 0.71 79 1012.0
20260904144016 27 23 0.0 3.2 0.00 0.71 0.71 76 1012.0
20260904143513 27 286 1.6 3.2 0.00 0.71 0.71 76 1012.0
20260904143029 27 17 0.0 3.2 0.00 0.71 0.71 79 1012.1
20260904142515 27 17 0.0 3.2 0.00 0.71 0.71 78 1012.0
20260904142015 27 323 1.6 3.2 0.00 0.71 0.71 76 1012.1
20260904141531 27 40 0.0 3.2 0.00 0.71 0.71 80 1012.1
20260904141015 27 147 0.0 3.2 0.00 0.71 0.71 80 1012.1
20260904140517 27 15 0.0 3.2 0.00 0.71 0.71 81 1012.0
20260904140015 26 342 0.0 6.4 0.00 0.71 0.71 79 1011.9
20260904135508 26 329 0.0 6.4 0.00 0.71 0.71 81 1012.0
20260904135011 26 300 0.0 3.2 0.00 0.71 0.71 81 1012.0
20260904134520 26 360 0.0 3.2 0.00 0.74 0.71 82 1012.0
20260904134009 26 327 0.0 3.2 0.00 0.74 0.71 84 1011.9
20260904133511 26 351 0.0 3.2 0.00 0.74 0.71 83 1012.0
20260904133004 26 297 0.0 3.2 0.00 0.74 0.71 83 1012.0
20260904132504 25 331 0.0 3.2 0.00 0.74 0.71 85 1011.9
20260904132004 25 302 0.0 3.2 0.00 0.74 0.71 88 1011.8
20260904131506 25 351 0.0 3.2 0.00 0.74 0.71 87 1011.8
20260904131003 25 163 0.0 3.2 0.00 0.74 0.71 89 1011.9
20260904130503 24 163 0.0 3.2 0.00 0.74 0.71 89 1011.9
20260904130011 24 171 0.0 3.2 0.00 0.74 0.71 90 1012.0
20260904125506 24 360 0.0 3.2 0.00 0.74 0.71 91 1011.9
20260904125006 23 273 0.0 3.2 0.00 0.74 0.71 94 1012.0
20260904124516 23 275 0.0 3.2 0.00 0.74 0.71 94 1011.9
20260904124008 23 300 0.0 0.0 0.00 0.74 0.71 95 1012.0